Location: Daybis Observatory
(33.4273°N, 88.8061°W)
Time: 10:22:27
(UTC-05:00)

Daily predictions for brighter satellites

Satellite Brightness Start Highest point End
(mag) Time Altitude Azimuth Time Altitude Azimuth Time Altitude Azimuth
CSL-04 Rocket 4.1 18:28:43 10° S 18:34:02 70° WSW 18:39:20 10° NNW
GP-B 3.1 18:29:51 10° N 18:34:16 71° E 18:38:41 10° S
Cosmos 2360 Rocket 2.3 18:28:39 10° NNW 18:34:20 88° ENE 18:40:01 10° SSE
RESURS DK-1 2.5 18:31:14 10° NNW 18:35:23 80° WSW 18:39:28 10° SSE
CSL-04 Debris 4.5 18:30:03 10° S 18:35:32 77° WSW 18:41:02 10° NNW
Atlas Centaur 2 2.8 18:32:18 10° W 18:35:56 34° SSW 18:40:16 10° SE
Cosmos 1727 Rocket 4.0 18:29:52 10° N 18:36:15 78° E 18:42:33 10° S
Cosmos 1048 Rocket 3.9 18:31:50 10° S 18:36:56 74° ESE 18:42:03 10° NNE
Gbstr 26 Del rocket 4.5 18:33:07 10° NNW 18:37:31 30° NE 18:42:47 10° E
ALOS 3.5 18:34:57 10° ESE 18:38:24 21° ENE 18:41:52 10° NNE
Aureole 2 4.4 18:38:40 10° N 18:41:59 68° ENE 18:45:50 10° SSE
CORIOLIS 4.2 18:36:54 10° SSE 18:42:16 88° E 18:47:43 10° NNW
Cosmos 1500 Rocket 3.7 18:41:47 10° N 18:46:07 80° W 18:50:24 10° S
Cosmos 1420 Rocket 4.0 18:42:24 10° NNW 18:47:42 68° ENE 18:52:55 10° SSE
Cosmos 1400 Rocket 4.0 18:44:58 10° NNW 18:48:47 46° W 18:52:32 10° SSW
Cosmos 2219 3.3 18:44:21 10° SSW 18:50:05 88° ESE 18:55:51 10° NNE
ERS-2 2.2 18:47:32 10° SSE 18:51:12 84° WSW 18:54:55 10° NNW
COSMOS 2428 2.9 18:46:26 10° N 18:51:58 51° ENE 18:57:30 10° SE
Cosmos 2333 Rocket 3.1 18:49:43 10° N 18:54:35 27° ENE 18:59:25 10° ESE
SL-24 R/B - RUBIN 2 4.4 18:50:23 10° NW 18:54:54 54° WSW 18:59:06 10° SSE
Cosmos 2297 Rocket 3.2 18:50:35 10° SSE 18:55:04 25° ESE 18:59:34 10° NE
Cosmos 1726 2.2 18:52:28 10° S 18:56:03 51° E 18:59:38 10° NNE
Hubble Space Telescope 2.0 18:53:36 10° SW 18:57:17 31° SSE 19:00:30 13° ESE
DELTA 2 R/B (1) 3.6 18:53:01 10° WNW 18:58:37 85° SSW 19:04:12 10° ESE
MOS 1 4.2 18:58:29 10° SSE 19:04:07 74° ENE 19:09:48 10° N
NOAA 12 4.4 18:59:17 10° SE 19:04:17 45° ENE 19:09:20 10° N
Cosmos 2058 4.3 19:00:32 10° NNW 19:04:29 43° W 19:08:23 10° SSW
Cosmos 2082 4.4 19:01:30 10° SSE 19:06:26 31° ESE 19:11:24 10° NE
Sich 1 3.8 19:03:03 10° NNE 19:06:59 31° E 19:10:55 10° SE
ASTRO E2 4.2 19:04:38 10° W 19:08:12 32° SSW 19:11:47 10° SE
MONITOR-E 4.0 19:05:11 10° SSE 19:08:15 76° ENE 19:11:18 10° N
METEOR-M 4.1 19:08:23 10° SSE 19:13:43 89° ENE 19:19:05 10° NNW
EO 1 Del DPAF 4.5 19:10:18 10° N 19:13:58 44° WNW 19:17:37 10° SSW
Thor Agena Rocket 3.8 19:09:16 10° NNE 19:14:04 42° E 19:18:48 10° S
IUS-17 SRM-1 4.2 19:11:47 10° WSW 19:14:07 19° SSW 19:15:34 11° SSE
COSMO-SKYMED 1 3.2 19:11:25 10° N 19:15:41 59° WNW 19:19:57 10° SSW
CZ-4 R/B 3.6 19:15:41 10° SSW 19:19:24 30° W 19:23:05 10° NW
Cosmos 2219 Rocket 2.2 19:14:48 10° N 19:20:17 54° ENE 19:25:47 10° SE
Cosmos 1805 Rocket 3.5 19:21:02 10° N 19:25:28 86° E 19:29:53 10° S
CZ-4C R/B 3.6 19:22:24 10° WSW 19:27:03 34° NW 19:32:15 10° NNE
Aureole 2 Rocket 2.7 19:27:17 10° NNW 19:31:20 89° ENE 19:35:25 10° SSE
Cosmos 2228 Rocket 3.6 19:27:31 10° SSE 19:31:40 37° E 19:34:24 19° NE
YAOGAN 1 4.4 19:28:10 10° SSW 19:32:05 33° W 19:36:01 10° NNW
Cosmos 1328 Rocket 3.7 19:29:12 10° SSE 19:33:27 48° E 19:37:40 10° NNE
Cosmos 1666 Rocket 3.4 19:30:44 10° N 19:35:03 67° E 19:39:19 10° SSE
Meteor 2-2 Rocket 4.1 19:29:32 10° S 19:35:10 66° E 19:40:45 10° NNE
Iridium 4 Rocket 4.4 19:31:41 10° SSW 19:37:11 59° W 19:43:00 10° N
BREEZE-M R/B 3.5 19:35:43 10° W 19:38:04 33° NNW 19:39:11 25° NNE
Cosmos 1633 Rocket 3.0 19:34:25 10° N 19:38:48 59° E 19:43:08 10° SSE
Meteor 1-27 4.4 19:40:35 10° SSE 19:45:59 46° E 19:51:29 10° NNE
Cosmos 494 Rocket 4.1 19:41:56 10° SSW 19:47:00 71° WNW 19:52:07 10° NNE
Cosmos 2084 3.0 19:46:32 10° NNW 19:50:20 73° NE 19:50:20 73° NE
H-2A R/B 3.2 19:55:29 50° N 19:55:29 50° N 19:58:30 10° N
In-Cosmos 22 Rocket 4.2 19:50:32 10° N 19:56:21 82° E 20:02:11 10° S
Delta 2 Rocket 3.4 19:53:15 10° W 19:56:55 54° SSW 19:56:55 54° SSW
Cosmos 2237 Rocket 2.1 19:53:33 10° NNW 19:59:13 61° ENE 20:00:18 51° ESE
Cosmos 2227 Rocket 2.6 19:56:05 10° SSW 20:01:40 64° WNW 20:07:18 10° NNE
MOS 1-B Rocket 4.3 20:03:12 42° NE 20:03:12 42° NE 20:08:10 10° N
Cosmos 1110 Rocket 4.0 19:58:19 10° NNW 20:03:38 83° WSW 20:07:00 23° SSE
Sakura Rocket 4.5 20:02:39 10° SW 20:04:50 22° SSW 20:04:50 22° SSW
SL-16 R/B 3.8 20:07:43 10° N 20:09:55 21° NNE 20:09:55 21° NNE
USA 32 4.0 20:09:20 10° N 20:13:51 65° NNE 20:13:51 65° NNE
ALOS 4.1 20:11:29 10° SSW 20:15:36 31° W 20:19:45 10° NW
Cosmos 1980 3.8 20:18:16 10° NNW 20:23:54 74° WSW 20:24:57 58° S
Atlas Centaur 2 4.2 20:21:54 10° SW 20:24:31 15° SSW 20:25:37 14° S
Gbstr 26 Del rocket 4.3 20:19:22 10° NW 20:24:44 57° SW 20:26:24 44° S
Meteor 2-3 Rocket 4.3 20:31:37 10° N 20:35:42 48° NNW 20:35:42 48° NNW
Hubble Space Telescope 3.1 20:34:18 10° WSW 20:35:51 21° WSW 20:35:51 21° WSW
Cosmos 2333 Rocket 3.7 20:33:39 10° NW 20:38:49 35° WSW 20:43:34 12° SSW
Cosmos 2297 Rocket 3.5 20:33:40 10° SW 20:38:50 36° WNW 20:42:52 16° N
BREEZE-M DEB (TANK) 4.1 20:33:38 10° NW 20:42:21 46° NNW 20:42:21 46° NNW
USA 267 3.4 20:52:07 67° SW 20:52:07 67° SW 20:57:39 10° SW
Centaur D AC-29 3.9 21:07:36 10° WSW 21:08:57 15° WSW 21:08:57 15° WSW
